| time (UTC) | temp F | wind direction | speed MPH | gust MPH | rain 1hr in | rain 24hr in | rain mn in | humidity % | barometer mb |
| 20260507214519 | 62 | 278 | 13.0 | 18.0 | 0.00 | 0.00 | 0.00 | 27 | 1007.9 |
| 20260507213023 | 61 | 329 | 7.0 | 14.0 | 0.00 | 0.00 | 0.00 | 26 | 1008.1 |
| 20260507211517 | 61 | 347 | 7.0 | 19.0 | 0.00 | 0.00 | 0.00 | 26 | 1008.3 |
| 20260507210021 | 61 | 305 | 12.0 | 17.0 | 0.00 | 0.00 | 0.00 | 27 | 1008.4 |
| 20260507204513 | 60 | 328 | 7.0 | 15.0 | 0.00 | 0.00 | 0.00 | 27 | 1008.5 |
| 20260507203012 | 61 | 311 | 12.0 | 19.0 | 0.00 | 0.00 | 0.00 | 26 | 1008.6 |
| 20260507201509 | 61 | 284 | 9.0 | 16.0 | 0.00 | 0.00 | 0.00 | 27 | 1008.8 |
| 20260507200011 | 60 | 298 | 9.0 | 21.0 | 0.00 | 0.00 | 0.00 | 28 | 1009.0 |
| 20260507194523 | 60 | 296 | 13.0 | 20.0 | 0.00 | 0.00 | 0.00 | 26 | 1008.9 |
| 20260507193007 | 60 | 325 | 12.0 | 21.0 | 0.00 | 0.00 | 0.00 | 26 | 1009.1 |
| 20260507191506 | 59 | 318 | 12.0 | 23.0 | 0.00 | 0.00 | 0.00 | 23 | 1009.2 |
| 20260507190011 | 59 | 309 | 8.0 | 19.0 | 0.00 | 0.00 | 0.00 | 26 | 1009.1 |
| 20260507184503 | 59 | 322 | 11.0 | 22.0 | 0.00 | 0.00 | 0.00 | 24 | 1009.2 |
| 20260507183002 | 59 | 252 | 9.0 | 16.0 | 0.00 | 0.00 | 0.00 | 26 | 1009.3 |
| 20260507181603 | 59 | 320 | 15.0 | 23.0 | 0.00 | 0.00 | 0.00 | 26 | 1009.5 |
| 20260507180103 | 59 | 310 | 10.0 | 16.0 | 0.00 | 0.00 | 0.00 | 27 | 1009.5 |
| 20260507174603 | 56 | 339 | 8.0 | 15.0 | 0.00 | 0.00 | 0.00 | 30 | 1009.6 |
| 20260507173100 | 57 | 347 | 10.0 | 27.0 | 0.00 | 0.00 | 0.00 | 35 | 1009.8 |
| 20260507171549 | 55 | 259 | 7.0 | 12.0 | 0.00 | 0.00 | 0.00 | 35 | 1010.1 |
| 20260507170047 | 55 | 288 | 6.0 | 12.0 | 0.00 | 0.00 | 0.00 | 36 | 1010.3 |
| 20260507164600 | 54 | 341 | 2.0 | 7.0 | 0.00 | 0.00 | 0.00 | 39 | 1010.3 |
| 20260507163038 | 53 | 347 | 7.0 | 17.0 | 0.00 | 0.00 | 0.00 | 38 | 1010.5 |
| 20260507161548 | 52 | 60 | 1.0 | 11.0 | 0.00 | 0.00 | 0.00 | 41 | 1010.6 |
| 20260507160032 | 51 | 329 | 0.0 | 6.0 | 0.00 | 0.00 | 0.00 | 43 | 1010.6 |
| 20260507154526 | 51 | 305 | 4.0 | 9.0 | 0.00 | 0.00 | 0.00 | 42 | 1010.7 |
| 20260507153026 | 50 | 39 | 2.0 | 5.0 | 0.00 | 0.00 | 0.00 | 44 | 1010.7 |
| 20260507151517 | 49 | 2 | 3.0 | 7.0 | 0.00 | 0.00 | 0.00 | 46 | 1010.6 |
| 20260507150014 | 49 | 7 | 0.0 | 6.0 | 0.00 | 0.00 | 0.00 | 48 | 1010.7 |
| 20260507144509 | 47 | 82 | 3.0 | 7.0 | 0.00 | 0.00 | 0.00 | 53 | 1010.7 |
| 20260507143006 | 47 | 111 | 2.0 | 6.0 | 0.00 | 0.00 | 0.00 | 54 | 1010.8 |
| 20260507141604 | 46 | 118 | 2.0 | 6.0 | 0.00 | 0.00 | 0.00 | 55 | 1010.8 |
| 20260507140055 | 45 | 87 | 1.0 | 6.0 | 0.00 | 0.00 | 0.00 | 56 | 1011.0 |
| 20260507134551 | 43 | 60 | 1.0 | 4.0 | 0.00 | 0.00 | 0.00 | 56 | 1011.0 |
| 20260507133050 | 43 | 79 | 0.0 | 3.0 | 0.00 | 0.00 | 0.00 | 60 | 1010.9 |
| 20260507131542 | 41 | 144 | 1.0 | 4.0 | 0.00 | 0.00 | 0.00 | 63 | 1010.8 |
| 20260507130042 | 39 | 134 | 1.0 | 3.0 | 0.00 | 0.00 | 0.00 | 65 | 1010.9 |
| 20260507124539 | 38 | 120 | 1.0 | 3.0 | 0.00 | 0.00 | 0.00 | 65 | 1010.8 |
| 20260507123029 | 37 | 236 | 0.0 | 2.0 | 0.00 | 0.00 | 0.00 | 68 | 1010.9 |
| 20260507121524 | 35 | 236 | 0.0 | 1.0 | 0.00 | 0.00 | 0.00 | 72 | 1010.9 |
| 20260507120020 | 32 | 236 | 0.0 | 0.0 | 0.00 | 0.00 | 0.00 | 77 | 1010.8 |
| 20260507114516 | 31 | 236 | 0.0 | 4.0 | 0.00 | 0.00 | 0.00 | 77 | 1010.7 |
| 20260507113033 | 30 | 236 | 1.0 | 4.0 | 0.00 | 0.00 | 0.00 | 78 | 1010.7 |
| 20260507111509 | 30 | 236 | 3.0 | 5.0 | 0.00 | 0.00 | 0.00 | 78 | 1010.6 |
| 20260507110010 | 29 | 211 | 3.0 | 5.0 | 0.00 | 0.00 | 0.00 | 78 | 1010.8 |
| 20260507104504 | 31 | 228 | 3.0 | 4.0 | 0.00 | 0.00 | 0.00 | 75 | 1010.9 |
| 20260507103101 | 32 | 23 | 1.0 | 4.0 | 0.00 | 0.00 | 0.00 | 70 | 1010.9 |
| 20260507101558 | 34 | 23 | 0.0 | 2.0 | 0.00 | 0.00 | 0.00 | 70 | 1011.0 |
| 20260507094557 | 37 | 115 | 1.0 | 6.0 | 0.00 | 0.00 | 0.00 | 65 | 1010.8 |
| 20260507093052 | 37 | 172 | 5.0 | 8.0 | 0.00 | 0.00 | 0.00 | 66 | 1010.6 |
| 20260507091605 | 38 | 157 | 6.0 | 10.0 | 0.00 | 0.00 | 0.00 | 62 | 1010.9 |
| 20260507090050 | 39 | 171 | 8.0 | 14.0 | 0.00 | 0.00 | 0.00 | 61 | 1010.9 |
| 20260507084600 | 38 | 177 | 9.0 | 14.0 | 0.00 | 0.00 | 0.00 | 62 | 1011.1 |
| 20260507083047 | 38 | 171 | 10.0 | 12.0 | 0.00 | 0.00 | 0.00 | 62 | 1011.2 |
| 20260507081553 | 38 | 146 | 4.0 | 6.0 | 0.00 | 0.00 | 0.00 | 62 | 1011.3 |
| 20260507080045 | 38 | 179 | 3.0 | 10.0 | 0.00 | 0.00 | 0.00 | 62 | 1011.3 |
| 20260507074548 | 38 | 149 | 5.0 | 7.0 | 0.00 | 0.00 | 0.00 | 63 | 1011.6 |
| 20260507073040 | 38 | 142 | 6.0 | 9.0 | 0.00 | 0.00 | 0.00 | 61 | 1011.6 |
| 20260507071537 | 37 | 154 | 5.0 | 10.0 | 0.00 | 0.00 | 0.00 | 64 | 1011.9 |
| 20260507070036 | 37 | 155 | 5.0 | 7.0 | 0.00 | 0.00 | 0.00 | 65 | 1012.2 |
| 20260507064538 | 36 | 162 | 7.0 | 10.0 | 0.00 | 0.00 | 0.00 | 65 | 1012.1 |
| 20260507063035 | 36 | 145 | 6.0 | 8.0 | 0.00 | 0.00 | 0.00 | 67 | 1012.3 |
| 20260507061531 | 37 | 148 | 0.0 | 4.0 | 0.00 | 0.00 | 0.00 | 65 | 1012.8 |
| 20260507060029 | 37 | 146 | 3.0 | 6.0 | 0.00 | 0.00 | 0.00 | 65 | 1012.7 |
| 20260507054527 | 36 | 127 | 1.0 | 6.0 | 0.00 | 0.00 | 0.00 | 69 | 1012.9 |
| 20260507053025 | 36 | 359 | 0.0 | 1.0 | 0.00 | 0.00 | 0.00 | 64 | 1013.2 |
| 20260507051523 | 36 | 359 | 0.0 | 0.0 | 0.00 | 0.00 | 0.00 | 63 | 1013.2 |
| 20260507050026 | 36 | 359 | 0.0 | 0.0 | 0.00 | 0.00 | 0.00 | 65 | 1013.2 |
| 20260507044520 | 36 | 359 | 0.0 | 1.0 | 0.00 | 0.00 | 0.00 | 64 | 1013.4 |
| 20260507043025 | 37 | 359 | 0.0 | 1.0 | 0.00 | 0.00 | 0.00 | 62 | 1013.4 |
| 20260507041519 | 37 | 359 | 0.0 | 1.0 | 0.00 | 0.00 | 0.00 | 66 | 1013.6 |
| 20260507040019 | 38 | 258 | 0.0 | 0.0 | 0.00 | 0.00 | 0.00 | 63 | 1013.7 |
| 20260507034523 | 37 | 258 | 0.0 | 2.0 | 0.00 | 0.00 | 0.00 | 64 | 1013.7 |
| 20260507033018 | 35 | 258 | 1.0 | 3.0 | 0.00 | 0.00 | 0.00 | 67 | 1013.7 |
| 20260507031519 | 36 | 359 | 0.0 | 2.0 | 0.00 | 0.00 | 0.00 | 63 | 1013.8 |
| 20260507030017 | 38 | 359 | 0.0 | 1.0 | 0.00 | 0.00 | 0.00 | 60 | 1013.7 |
| 20260507024519 | 38 | 359 | 1.0 | 3.0 | 0.00 | 0.00 | 0.00 | 58 | 1013.6 |
| 20260507023016 | 37 | 359 | 1.0 | 4.0 | 0.00 | 0.00 | 0.00 | 61 | 1013.6 |
| 20260507021515 | 36 | 359 | 1.0 | 3.0 | 0.00 | 0.00 | 0.00 | 62 | 1013.3 |
| 20260507020022 | 39 | 359 | 2.0 | 3.0 | 0.00 | 0.00 | 0.00 | 58 | 1013.3 |
| 20260507014515 | 42 | 359 | 0.0 | 0.0 | 0.00 | 0.00 | 0.00 | 54 | 1013.2 |
| 20260507013020 | 42 | 359 | 0.0 | 2.0 | 0.00 | 0.00 | 0.00 | 52 | 1013.1 |
| 20260507011518 | 43 | 359 | 2.0 | 5.0 | 0.00 | 0.00 | 0.00 | 51 | 1013.1 |
| 20260507010015 | 44 | 360 | 3.0 | 6.0 | 0.00 | 0.00 | 0.00 | 48 | 1013.1 |
| 20260507004512 | 46 | 351 | 4.0 | 7.0 | 0.00 | 0.00 | 0.00 | 46 | 1013.3 |
| 20260507003011 | 46 | 357 | 4.0 | 10.0 | 0.00 | 0.00 | 0.00 | 45 | 1013.4 |
| 20260507001536 | 46 | 360 | 7.0 | 11.0 | 0.00 | 0.00 | 0.00 | 45 | 1013.4 |
| 20260507000014 | 46 | 1 | 7.0 | 11.0 | 0.00 | 0.00 | 0.00 | 46 | 1013.6 |
| 20260506234509 | 47 | 1 | 7.0 | 13.0 | 0.00 | 0.00 | 0.00 | 45 | 1013.6 |
| 20260506233007 | 47 | 1 | 13.0 | 15.0 | 0.00 | 0.00 | 0.00 | 44 | 1013.7 |
| 20260506231506 | 48 | 325 | 9.0 | 16.0 | 0.00 | 0.00 | 0.00 | 44 | 1013.7 |
| 20260506230006 | 48 | 317 | 9.0 | 15.0 | 0.00 | 0.00 | 0.00 | 42 | 1013.8 |
| 20260506224505 | 48 | 319 | 7.0 | 14.0 | 0.00 | 0.00 | 0.00 | 44 | 1013.8 |
| 20260506223004 | 49 | 313 | 12.0 | 17.0 | 0.00 | 0.00 | 0.00 | 43 | 1013.8 |
| 20260506221504 | 49 | 338 | 14.0 | 20.0 | 0.00 | 0.00 | 0.00 | 42 | 1014.0 |
| 20260506220003 | 49 | 313 | 11.0 | 22.0 | 0.00 | 0.00 | 0.00 | 42 | 1014.1 |